User: anonymous   Login
Location: Gro�wechsungen
(51.4926°N, 10.6901°E)
Time: 02:02:04
(UTC+00:00)
Language:

Okean 1-7 Rocket - Orbit

View from above orbital plane
View from above orbital plane
View from above satellite
View from above satellite

Ground track
Ground track

The orbit data is extracted from the following two-line orbital elements,

1 23318U 94066B   20328.60807762  .00000105  00000-0  10921-4 0  9996
2 23318  82.5417  84.2758 0025213  88.0919 272.3181 14.78885921408175
Epoch (UTC): 23 November 2020 14:35:37
Eccentricity: 0.0025213
inclination: 82.5417°
perigee height: 615 km
apogee height: 650 km
right ascension of ascending node: 84.2758°
argument of perigee: 88.0919°
revolutions per day: 14.78885921
mean anomaly at epoch: 272.3181°
orbit number at epoch: 40817

The dashed part of the orbit path shows where the satellite is in the earth's shadow,  

DLR